[[{"header":{"parameterUnit":"m.s-1","parameterCategory":1,"la1":30.2991,"la2":30.254,"lo1":-89.0895,"lo2":-89.0444,"dy":0.0017,"dx":0.0017,"nx":28,"ny":28,"refTime":"2023-08-01T09:00:00:Z","depth":0,"parameterNumber":2,"parameterNumberName":"U-component_of_WINDS"},"data":[0,0,0,0,0,0,0,0,0,0,0,0,0,0,0,0,0,0,0,0,0,0,0,0,0,0,0,0,0,0,0,0,0,0,0,0,0,0,0,0,0,0,0,0,0,0,0,0,0,0,0,0,0,0,0,0,0,0,1.1389,1.1391,0,1.1561,1.1563,1.1565,1.1615,1.1614,1.1613,1.1612,1.1791,1.1796,1.1802,0,0,0,0,0,0,0,0,0,0,0,0,0,1.1104,1.1109,1.1389,1.1391,1.1393,1.1561,1.1563,1.1565,1.1615,1.1614,1.1612,1.1611,1.1789,1.1795,1.1802,0,0,0,0,0,0,0,0,0,0,0,0,0,1.1247,1.1111,1.1388,1.1438,1.1444,1.156,1.1563,1.1566,1.1615,1.1614,1.1612,1.1611,1.1787,1.1795,1.1803,1.1883,0,0,1.1829,1.1833,0,0,0,0,0,0,0,0,1.1239,1.1258,1.1428,1.1435,1.1442,1.1565,1.1528,1.1672,1.1615,1.155,1.1612,1.161,1.1717,1.1731,1.1766,1.1892,1.1899,1.183,1.1835,1.1838,1.1841,0,0,0,0,0,0,0,1.1229,1.1251,1.1457,1.1431,1.1439,1.1452,1.1471,1.1556,1.1639,1.1556,1.156,1.1579,1.172,1.1758,1.1771,1.1902,1.1829,1.1837,1.1842,1.1845,1.21,1.2102,0,0,0,0,0,0,1.1211,1.1242,1.1451,1.1462,1.1335,1.1458,1.1479,1.1527,1.1638,1.1654,1.158,1.1581,1.1744,1.1761,1.1777,1.1877,1.1838,1.1846,1.1851,1.2098,1.2101,1.2102,0,0,0,0,0,0,1.1204,1.1229,1.1444,1.1353,1.1382,1.1465,1.1518,1.1531,1.1569,1.1657,1.1672,1.1603,1.1744,1.1766,1.1856,1.1884,1.185,1.1858,1.2096,1.2099,1.2101,1.2078,0,0,0,0,0,0,1.1196,1.1226,1.1257,1.1353,1.1386,1.1519,1.1519,1.1535,1.1583,1.1585,1.1683,1.1698,1.1744,1.1843,1.1864,1.1895,1.1864,1.2094,1.2098,1.2101,1.2076,1.2079,1.2081,0,0,0,0,0,1.1186,1.1244,1.1258,1.1283,1.1426,1.1521,1.154,1.1592,1.1585,1.1617,1.1673,1.1695,1.1878,1.1852,1.1876,1.191,1.2093,1.2097,1.21,1.2075,1.2079,1.2081,0,0,0,0,0,0,1.115,1.1258,1.1275,1.1366,1.1434,1.1529,1.1571,1.1594,1.1666,1.1665,1.1727,1.1749,1.1835,1.1882,1.1851,1.1993,1.1986,1.1995,1.1958,1.1962,1.1965,1.1951,1.1871,0,0,0,0,0,1.1153,1.122,1.1311,1.1383,1.1416,1.1487,1.1531,1.1565,1.1638,1.1667,1.173,1.1801,1.1874,1.1921,1.1994,1.2084,1.2105,1.2119,1.2122,1.2123,1.213,1.218,1.2186,1.2115,1.2115,1.2115,0,0,1.1159,1.1226,1.1265,1.1377,1.1434,1.1502,1.1511,1.1583,1.1635,1.1678,1.1766,1.1815,1.1899,1.1988,1.2032,1.2031,1.2154,1.2128,1.2129,1.2135,1.2184,1.2191,1.2197,1.2118,1.2117,1.2117,0,0,1.1205,1.1263,1.1329,1.1385,1.147,1.1517,1.1533,1.1625,1.1658,1.1748,1.1782,1.1844,1.197,1.2027,1.2072,1.2139,1.2161,1.2162,1.2175,1.2222,1.2228,1.2233,1.2256,1.2263,1.2168,1.2168,1.2168,0,1.1202,1.1306,1.136,1.143,1.1478,1.152,1.1586,1.1639,1.1743,1.1775,1.1773,1.193,1.1989,1.2092,1.2109,1.2145,1.2164,1.215,1.2223,1.2229,1.2234,1.2256,1.2265,1.2167,1.2167,1.2168,1.2168,0,1.1298,1.1369,1.1412,1.151,1.1564,1.1632,1.1696,1.1744,1.1773,1.182,1.1911,1.1983,1.207,1.2098,1.2128,1.2205,1.2202,1.221,1.2204,1.2239,1.2261,1.227,1.2166,1.2167,1.2167,1.2167,0,0,1.1325,1.1452,1.1467,1.1511,1.1608,1.1665,1.1735,1.1819,1.1858,1.1929,1.1989,1.2094,1.2101,1.2153,1.219,1.2232,1.2279,1.2236,1.2239,1.224,1.2367,1.2359,1.2368,1.2295,1.2297,1.2298,1.236,0,1.1382,1.1508,1.1558,1.166,1.1726,1.1766,1.1827,1.1893,1.1939,1.2003,1.2055,1.2127,1.2133,1.2164,1.2208,1.2264,1.2305,1.2261,1.2351,1.2353,1.2327,1.238,1.2372,1.2426,1.2369,1.237,1.2372,0,1.1465,1.1535,1.1643,1.1731,1.176,1.1814,1.1895,1.1955,1.2031,1.2061,1.2118,1.2153,1.2228,1.2218,1.2322,1.229,1.233,1.2364,1.2367,1.2376,1.2363,1.2389,1.2445,1.2453,1.2386,1.2385,1.2384,0,1.1472,1.1594,1.1674,1.1711,1.1816,1.1852,1.1898,1.1972,1.2019,1.209,1.2121,1.2201,1.2244,1.2305,1.2359,1.2348,1.2458,1.2453,1.2485,1.2484,1.2505,1.2503,1.2567,1.2534,1.2534,1.2533,1.2533,0,1.1529,1.1593,1.1678,1.1727,1.18,1.1858,1.1929,1.1977,1.2043,1.2102,1.2143,1.2198,1.2268,1.2332,1.2376,1.2454,1.2474,1.2501,1.2511,1.2496,1.2492,1.2522,1.2519,1.2536,1.2535,1.2535,1.2534,0,1.1549,1.1608,1.1698,1.1789,1.1814,1.1863,1.1942,1.1991,1.2039,1.2114,1.2135,1.221,1.2288,1.2349,1.245,1.2479,1.2562,1.2575,1.2536,1.2541,1.2569,1.2565,1.2653,1.2667,1.2625,1.2625,1.2626,0,1.158,1.1631,1.1727,1.1769,1.1814,1.1882,1.1929,1.1989,1.2037,1.2126,1.2165,1.2245,1.2311,1.2433,1.2498,1.2575,1.2589,1.2615,1.2601,1.2584,1.2588,1.2583,1.2588,1.2616,1.2616,1.2616,1.2616,0,1.163,1.1657,1.1724,1.1801,1.1857,1.1921,1.1986,1.2018,1.2089,1.2141,1.222,1.2272,1.2375,1.2453,1.2537,1.2585,1.2612,1.262,1.2631,1.2616,1.259,1.2603,1.2538,1.2618,1.2617,1.2617,1.2617,1.2617,1.1656,1.1702,1.1776,1.1849,1.1904,1.1964,1.2014,1.2068,1.2135,1.2222,1.2253,1.2334,1.2408,1.2524,1.2572,1.2636,1.2638,1.2655,1.2659,1.2662,1.2659,1.2581,1.2652,1.2652,1.2652,1.2652,1.2652,0,1.1706,1.1756,1.1823,1.1911,1.1969,1.1989,1.2062,1.2109,1.2179,1.2246,1.231,1.2401,1.2477,1.2547,1.2627,1.2665,1.2679,1.2684,1.2681,1.2691,1.2654,1.2635,1.2671,1.267,1.267,1.267,1.267,1.267,1.1739,1.1817,1.1852,1.1958,1.2008,1.2086,1.2126,1.2181,1.2234,1.2333,1.2396,1.2441,1.2509,1.2594,1.2665,1.2684,1.2711,1.2712,1.2733,1.2697,1.2694,1.2691,1.2674,1.2717,1.2717,1.2766,1.2766,1.2766]},{"header":{"parameterUnit":"m.s-1","parameterCategory":1,"la1":30.2991,"la2":30.254,"lo1":-89.0895,"lo2":-89.0444,"dy":0.0017,"dx":0.0017,"nx":28,"ny":28,"refTime":"2023-08-01T09:00:00:Z","depth":0,"parameterNumber":3,"parameterNumberName":"V-component_of_WINDS"},"data":[0,0,0,0,0,0,0,0,0,0,0,0,0,0,0,0,0,0,0,0,0,0,0,0,0,0,0,0,0,0,0,0,0,0,0,0,0,0,0,0,0,0,0,0,0,0,0,0,0,0,0,0,0,0,0,0,0,0,2.6413,2.6412,0,2.6325,2.6324,2.6322,2.6258,2.6258,2.6257,2.6257,2.616,2.6158,2.6156,0,0,0,0,0,0,0,0,0,0,0,0,0,2.6523,2.6521,2.6413,2.6412,2.6411,2.6325,2.6323,2.6322,2.6258,2.6258,2.6257,2.6257,2.6161,2.6158,2.6156,0,0,0,0,0,0,0,0,0,0,0,0,0,2.6459,2.652,2.6414,2.6369,2.6364,2.6325,2.6323,2.6322,2.6259,2.6258,2.6257,2.6256,2.6162,2.6159,2.6156,2.6152,0,0,2.6146,2.6145,0,0,0,0,0,0,0,0,2.6462,2.6455,2.6377,2.6372,2.6367,2.6302,2.6326,2.6265,2.6259,2.6298,2.6257,2.6256,2.6208,2.6201,2.6185,2.6147,2.6143,2.6146,2.6144,2.6143,2.6142,0,0,0,0,0,0,0,2.6467,2.6458,2.6378,2.6376,2.6369,2.6352,2.6342,2.6314,2.6258,2.6295,2.629,2.6281,2.6205,2.6189,2.6183,2.6142,2.6146,2.6143,2.6141,2.614,2.6094,2.6095,0,0,0,0,0,0,2.6479,2.6462,2.6381,2.6375,2.6414,2.6351,2.6339,2.6323,2.6258,2.6248,2.6282,2.6278,2.6194,2.6186,2.6179,2.6169,2.6143,2.614,2.6138,2.6093,2.6094,2.6095,0,0,0,0,0,0,2.6482,2.6472,2.6384,2.6417,2.6405,2.635,2.6332,2.6322,2.6306,2.6248,2.6237,2.6276,2.6193,2.6184,2.6159,2.6165,2.6138,2.6135,2.6093,2.6094,2.6094,2.6149,0,0,0,0,0,0,2.6485,2.6474,2.6473,2.6418,2.6404,2.6368,2.6332,2.6321,2.6301,2.6296,2.624,2.623,2.6192,2.6164,2.6156,2.616,2.6133,2.6092,2.6093,2.6094,2.6147,2.6152,2.6157,0,0,0,0,0,2.6489,2.6491,2.6473,2.6464,2.6402,2.6368,2.636,2.6317,2.6302,2.63,2.6263,2.6232,2.6166,2.6162,2.6152,2.6155,2.6091,2.6093,2.6094,2.6144,2.6151,2.6157,0,0,0,0,0,0,2.6546,2.6483,2.6462,2.6447,2.6414,2.6358,2.6353,2.6326,2.6295,2.6291,2.6238,2.6226,2.6207,2.6179,2.6176,2.6147,2.6124,2.6124,2.6166,2.6172,2.6177,2.6183,2.613,0,0,0,0,0,2.6557,2.6537,2.6483,2.6474,2.6459,2.6409,2.6393,2.6364,2.6326,2.6311,2.6272,2.6235,2.6206,2.6188,2.6158,2.6143,2.6129,2.614,2.6145,2.615,2.6149,2.6137,2.6141,2.61,2.61,2.61,0,0,2.6579,2.6542,2.6532,2.6485,2.6455,2.6434,2.6398,2.6376,2.6359,2.6307,2.6282,2.6252,2.6207,2.6188,2.6177,2.6163,2.6158,2.6152,2.6155,2.6152,2.6139,2.6143,2.6147,2.6101,2.61,2.61,0,0,2.6608,2.6579,2.6568,2.654,2.6497,2.6464,2.6462,2.6409,2.6388,2.6362,2.6323,2.6301,2.6252,2.6221,2.6199,2.6217,2.6186,2.6209,2.6234,2.6223,2.6226,2.6229,2.6233,2.6235,2.6209,2.6209,2.6209,0,2.664,2.6608,2.6566,2.6547,2.6526,2.648,2.6468,2.6442,2.639,2.6376,2.6363,2.63,2.6267,2.6238,2.6243,2.6227,2.6221,2.6214,2.623,2.6232,2.6233,2.6237,2.6239,2.6212,2.6212,2.6211,2.6211,0,2.6648,2.6626,2.6623,2.6576,2.6555,2.6539,2.6493,2.6476,2.6449,2.6417,2.6391,2.635,2.631,2.6301,2.6274,2.6268,2.6261,2.624,2.6215,2.6241,2.6243,2.6244,2.6216,2.6215,2.6214,2.6213,0,0,2.6708,2.664,2.6639,2.6616,2.6565,2.6547,2.6529,2.6492,2.6477,2.6444,2.6425,2.6386,2.6365,2.634,2.6309,2.63,2.6314,2.6279,2.6277,2.6285,2.6303,2.6319,2.6321,2.6295,2.6295,2.6295,2.6306,0,2.6727,2.6694,2.6656,2.6635,2.6613,2.6569,2.6553,2.6519,2.6489,2.6465,2.643,2.6402,2.6379,2.6363,2.6353,2.6315,2.6317,2.6314,2.6275,2.6274,2.6285,2.6322,2.6338,2.6351,2.6307,2.6307,2.6307,0,2.6745,2.6715,2.6692,2.6643,2.6632,2.6618,2.6581,2.6559,2.6519,2.6498,2.6471,2.6438,2.6414,2.6394,2.636,2.6359,2.6341,2.632,2.6319,2.6312,2.6291,2.6314,2.6354,2.6356,2.6309,2.6309,2.6308,0,2.6788,2.6742,2.6722,2.6705,2.6647,2.6639,2.6614,2.6573,2.6553,2.652,2.6506,2.6471,2.645,2.6422,2.638,2.637,2.6349,2.6326,2.6328,2.633,2.6324,2.6325,2.636,2.6317,2.6316,2.6316,2.6316,0,2.6812,2.6799,2.6741,2.6729,2.6712,2.6668,2.6653,2.6624,2.6589,2.6568,2.6528,2.651,2.6456,2.643,2.6397,2.6372,2.6364,2.6344,2.6335,2.6346,2.6349,2.6332,2.6329,2.6317,2.6317,2.6317,2.6317,0,2.6857,2.6818,2.6793,2.6742,2.6728,2.6718,2.6673,2.6658,2.6626,2.6601,2.6592,2.6542,2.651,2.6465,2.6419,2.6396,2.6375,2.6362,2.6389,2.6384,2.6388,2.6387,2.6412,2.6412,2.6371,2.6371,2.6372,0,2.6874,2.6863,2.6811,2.6796,2.6773,2.6748,2.6728,2.6684,2.6664,2.6618,2.6608,2.6574,2.6543,2.6493,2.6451,2.6415,2.6399,2.641,2.6393,2.6405,2.6397,2.6397,2.6395,2.6414,2.6414,2.6415,2.6415,0,2.6907,2.6889,2.6862,2.6829,2.6806,2.6777,2.6746,2.6735,2.6684,2.6664,2.6632,2.6608,2.6562,2.6527,2.6485,2.6457,2.6427,2.6422,2.642,2.643,2.6446,2.6436,2.6398,2.642,2.642,2.642,2.6419,2.6419,2.6937,2.6925,2.6887,2.6858,2.6831,2.6803,2.6786,2.6753,2.6726,2.6686,2.6661,2.663,2.6589,2.653,2.6504,2.6477,2.6465,2.6463,2.6462,2.6461,2.6465,2.6452,2.6469,2.6469,2.6469,2.6469,2.6469,0,2.6966,2.694,2.6914,2.6873,2.685,2.6827,2.6791,2.6773,2.6746,2.6712,2.6684,2.6646,2.6612,2.6567,2.653,2.6517,2.6502,2.6508,2.6507,2.6501,2.6478,2.6483,2.6521,2.6521,2.6521,2.6521,2.6521,2.6521,2.6979,2.6957,2.6934,2.6898,2.6871,2.6841,2.6822,2.6796,2.6768,2.6728,2.6701,2.6673,2.6634,2.6593,2.656,2.6548,2.6535,2.6545,2.6528,2.6508,2.6503,2.6498,2.6502,2.6543,2.6543,2.6553,2.6553,2.6553]}]]